When you browse on this site, cookies collect data to enhance your experience and personalize the content and advertising you see.
Visit our Privacy Policy to learn more. By continuing to use the site, you agree to this use of cookies and data.
  • In Czech Republic
  • List of Countries
  • For 7 days
  • Water Temperature
  • Satellite Maps
  • Weather Map
  • Weather Widgets
  • user-avatar
    Login

    Hourly Weather Calgary

    Today, 16 June, Sunday

    Time Temperature Precipitation Wind Pressure Humidity
    00:00 +10°C° 0 mm 2 mps 668 mmHg 82%
    01:00 +10°C° 0 mm 2 mps 668 mmHg 83%
    02:00 +10°C° 0 mm 2 mps 668 mmHg 82%
    03:00 +9°C° 0 mm 2 mps 668 mmHg 82%
    04:00 +9°C° 0 mm 2 mps 668 mmHg 81%
    05:00 +12°C° 0 mm 2 mps 668 mmHg 76%
    06:00 +14°C° 0 mm 1 mps 669 mmHg 71%
    07:00 +16°C° 0 mm 1 mps 669 mmHg 66%
    08:00 +18°C° 0 mm 1 mps 669 mmHg 61%
    09:00 +19°C° 0 mm 1 mps 669 mmHg 56%
    10:00 +21°C° 0 mm 1 mps 669 mmHg 51%
    11:00 +20°C° 0 mm 2 mps 669 mmHg 49%
    12:00 +21°C° 0 mm 2 mps 669 mmHg 46%
    13:00 +21°C° 0 mm 2 mps 669 mmHg 44%
    14:00 +21°C° 0 mm 3 mps 669 mmHg 46%
    15:00 +21°C° 0 mm 3 mps 669 mmHg 48%
    16:00 +21°C° 0 mm 3 mps 669 mmHg 50%
    17:00 +19°C° 0 mm 3 mps 668 mmHg 58%
    18:00 +18°C° 0 mm 3 mps 668 mmHg 65%
    19:00 +16°C° 0 mm 3 mps 668 mmHg 72%
    20:00 +14°C° 0 mm 3 mps 668 mmHg 76%
    21:00 +13°C° 0 mm 3 mps 668 mmHg 81%
    22:00 +11°C° 0 mm 3 mps 668 mmHg 85%
    23:00 +11°C° 0 mm 3 mps 668 mmHg 88%

    Tomorrow, 17 June, Monday

    Time Temperature Precipitation Wind Pressure Humidity
    00:00 +10°C° 0 mm 3 mps 667 mmHg 90%
    01:00 +10°C° 0 mm 3 mps 667 mmHg 92%
    02:00 +9°C° 0 mm 3 mps 667 mmHg 93%
    03:00 +9°C° 0 mm 2 mps 667 mmHg 93%
    04:00 +9°C° 0 mm 2 mps 667 mmHg 94%
    05:00 +11°C° 0 mm 3 mps 668 mmHg 88%
    06:00 +13°C° 0 mm 3 mps 668 mmHg 82%
    07:00 +14°C° 0 mm 4 mps 668 mmHg 76%
    08:00 +16°C° 0 mm 5 mps 668 mmHg 72%
    09:00 +17°C° 0 mm 5 mps 668 mmHg 68%
    10:00 +20°C° 0 mm 6 mps 669 mmHg 63%
    11:00 +21°C° 0.1 mm 6 mps 669 mmHg 61%
    12:00 +22°C° 0.1 mm 6 mps 668 mmHg 59%
    13:00 +23°C° 0.1 mm 6 mps 668 mmHg 57%
    14:00 +22°C° 0.6 mm 6 mps 668 mmHg 59%
    15:00 +22°C° 0.6 mm 6 mps 668 mmHg 60%
    16:00 +22°C° 0.6 mm 5 mps 667 mmHg 61%
    17:00 +21°C° 0.3 mm 5 mps 667 mmHg 66%
    18:00 +19°C° 0.3 mm 4 mps 667 mmHg 71%
    19:00 +18°C° 0.3 mm 4 mps 666 mmHg 76%
    20:00 +17°C° 0.1 mm 4 mps 666 mmHg 79%
    21:00 +15°C° 0.1 mm 4 mps 665 mmHg 81%
    22:00 +13°C° 0.1 mm 4 mps 665 mmHg 84%
    23:00 +13°C° 0 mm 3 mps 665 mmHg 85%

    Day after tomorrow, 18 June, Tuesday

    Time Temperature Precipitation Wind Pressure Humidity
    00:00 +13°C° 0 mm 2 mps 664 mmHg 86%
    01:00 +13°C° 0 mm 2 mps 664 mmHg 88%
    02:00 +13°C° 0 mm 2 mps 663 mmHg 87%
    03:00 +13°C° 0 mm 2 mps 663 mmHg 86%
    04:00 +13°C° 0 mm 1 mps 663 mmHg 85%
    05:00 +13°C° 0.1 mm 4 mps 664 mmHg 83%
    06:00 +14°C° 0.1 mm 6 mps 664 mmHg 81%
    07:00 +16°C° 0.1 mm 8 mps 665 mmHg 80%
    08:00 +16°C° 0 mm 7 mps 665 mmHg 78%
    09:00 +17°C° 0 mm 6 mps 666 mmHg 76%
    10:00 +17°C° 0 mm 5 mps 666 mmHg 73%
    11:00 +18°C° 0.5 mm 4 mps 666 mmHg 74%
    12:00 +18°C° 0.5 mm 4 mps 666 mmHg 75%
    13:00 +18°C° 0.5 mm 4 mps 666 mmHg 76%
    14:00 +18°C° 0.6 mm 3 mps 666 mmHg 74%
    15:00 +18°C° 0.6 mm 3 mps 666 mmHg 73%
    16:00 +19°C° 0.6 mm 3 mps 666 mmHg 71%
    17:00 +18°C° 0 mm 2 mps 666 mmHg 74%
    18:00 +17°C° 0 mm 2 mps 665 mmHg 77%
    19:00 +16°C° 0 mm 1 mps 665 mmHg 80%
    20:00 +15°C° 0.2 mm 1 mps 665 mmHg 84%
    21:00 +13°C° 0.2 mm 2 mps 664 mmHg 87%
    22:00 +12°C° 0.2 mm 2 mps 664 mmHg 90%
    23:00 +12°C° 0.3 mm 2 mps 663 mmHg 92%

    19 June, Wednesday

    Time Temperature Precipitation Wind Pressure Humidity
    00:00 +10°C° 0.3 mm 2 mps 662 mmHg 94%
    01:00 +10°C° 0.3 mm 2 mps 662 mmHg 96%
    02:00 +11°C° 0.2 mm 3 mps 661 mmHg 96%
    03:00 +11°C° 0.2 mm 3 mps 661 mmHg 96%
    04:00 +11°C° 0.2 mm 3 mps 660 mmHg 96%
    05:00 +12°C° 0.3 mm 5 mps 660 mmHg 92%
    06:00 +11°C° 0.3 mm 6 mps 660 mmHg 88%
    07:00 +11°C° 0.3 mm 7 mps 660 mmHg 84%
    08:00 +11°C° 0.3 mm 8 mps 660 mmHg 77%
    09:00 +11°C° 0.3 mm 9 mps 661 mmHg 71%
    10:00 +12°C° 0.3 mm 9 mps 661 mmHg 64%
    11:00 +12°C° 0 mm 9 mps 661 mmHg 61%
    12:00 +13°C° 0 mm 8 mps 661 mmHg 58%
    13:00 +13°C° 0 mm 8 mps 662 mmHg 55%
    14:00 +14°C° 0.1 mm 7 mps 662 mmHg 56%
    15:00 +14°C° 0.1 mm 6 mps 662 mmHg 58%
    16:00 +14°C° 0.1 mm 5 mps 661 mmHg 59%
    17:00 +12°C° 0.6 mm 5 mps 661 mmHg 65%
    18:00 +11°C° 0.6 mm 4 mps 661 mmHg 71%
    19:00 +10°C° 0.6 mm 3 mps 661 mmHg 77%
    20:00 +9°C° 0.3 mm 3 mps 661 mmHg 80%
    21:00 +8°C° 0.3 mm 2 mps 661 mmHg 83%
    22:00 +8°C° 0.3 mm 1 mps 661 mmHg 85%
    23:00 +7°C° 0 mm 2 mps 661 mmHg 84%

    20 June, Thursday

    Time Temperature Precipitation Wind Pressure Humidity
    00:00 +5°C° 0 mm 3 mps 661 mmHg 84%
    01:00 +5°C° 0 mm 3 mps 661 mmHg 83%
    02:00 +5°C° 0 mm 3 mps 661 mmHg 82%
    03:00 +6°C° 0 mm 2 mps 661 mmHg 81%
    04:00 +5°C° 0 mm 2 mps 661 mmHg 81%
    05:00 +7°C° 0 mm 2 mps 660 mmHg 74%
    06:00 +10°C° 0 mm 1 mps 660 mmHg 67%
    07:00 +11°C° 0 mm 1 mps 660 mmHg 61%
    08:00 +13°C° 0 mm 2 mps 660 mmHg 58%
    09:00 +13°C° 0 mm 3 mps 661 mmHg 54%
    10:00 +14°C° 0 mm 3 mps 661 mmHg 51%
    11:00 +14°C° 0.7 mm 3 mps 661 mmHg 54%
    12:00 +14°C° 0.7 mm 3 mps 661 mmHg 57%
    13:00 +15°C° 0.7 mm 2 mps 661 mmHg 59%
    14:00 +13°C° 0.9 mm 3 mps 661 mmHg 64%
    15:00 +13°C° 0.9 mm 3 mps 661 mmHg 69%
    16:00 +12°C° 0.9 mm 3 mps 661 mmHg 74%
    17:00 +11°C° 0.4 mm 3 mps 661 mmHg 78%
    18:00 +10°C° 0.4 mm 3 mps 661 mmHg 82%
    19:00 +9°C° 0.4 mm 3 mps 661 mmHg 86%
    20:00 +9°C° 0.1 mm 3 mps 662 mmHg 87%
    21:00 +7°C° 0.1 mm 4 mps 662 mmHg 88%
    22:00 +7°C° 0.1 mm 4 mps 663 mmHg 89%
    23:00 +7°C° 0.8 mm 5 mps 663 mmHg 90%

    21 June, Friday

    Time Temperature Precipitation Wind Pressure Humidity
    00:00 +7°C° 0.8 mm 5 mps 663 mmHg 91%
    01:00 +7°C° 0.8 mm 6 mps 663 mmHg 92%
    02:00 +6°C° 0.4 mm 7 mps 663 mmHg 91%
    03:00 +8°C° 0.4 mm 7 mps 664 mmHg 91%
    04:00 +7°C° 0.4 mm 8 mps 664 mmHg 91%
    05:00 +8°C° 0.1 mm 9 mps 664 mmHg 90%
    06:00 +8°C° 0.1 mm 9 mps 665 mmHg 89%
    07:00 +8°C° 0.1 mm 10 mps 665 mmHg 88%
    08:00 +8°C° 0.3 mm 10 mps 665 mmHg 88%
    09:00 +8°C° 0.3 mm 9 mps 666 mmHg 88%
    10:00 +10°C° 0.3 mm 9 mps 666 mmHg 88%
    11:00 +10°C° 0.6 mm 9 mps 666 mmHg 86%
    12:00 +11°C° 0.6 mm 9 mps 667 mmHg 83%
    13:00 +12°C° 0.6 mm 9 mps 667 mmHg 81%
    14:00 +11°C° 0.8 mm 9 mps 667 mmHg 83%
    15:00 +11°C° 0.8 mm 9 mps 667 mmHg 84%
    16:00 +10°C° 0.8 mm 9 mps 667 mmHg 85%
    17:00 +10°C° 0.4 mm 8 mps 667 mmHg 87%
    18:00 +9°C° 0.4 mm 7 mps 668 mmHg 88%
    19:00 +8°C° 0.4 mm 6 mps 668 mmHg 89%
    20:00 +8°C° 0 mm 6 mps 668 mmHg 89%
    21:00 +8°C° 0 mm 6 mps 668 mmHg 88%
    22:00 +8°C° 0 mm 5 mps 668 mmHg 87%
    23:00 +8°C° 0.2 mm 5 mps 668 mmHg 88%
    Show more